LX0WX-13 Weather Reports


time (UTC)temp
C
wind
direction
speed
KPH
gust
KPH
rain 1hr
cm
rain 24hr
cm
rain mn
cm
humidity
%
barometer
mb
20260506230548 5 0 11.3 14.5 0.00 0.56 0.00 92 1006.3
20260506230048 5 337 12.9 16.1 0.00 0.56 0.00 92 1006.4
20260506225548 5 337 12.9 16.1 0.00 0.56 0.00 92 1006.6
20260506225048 5 0 4.8 14.5 0.00 0.56 0.00 92 1006.4
20260506224548 5 0 14.5 14.5 0.00 0.56 0.00 92 1006.4
20260506224048 5 0 9.7 14.5 0.00 0.56 0.00 92 1006.5
20260506223548 5 0 6.4 9.7 0.00 0.56 0.00 92 1006.6
20260506223048 5 0 8.0 12.9 0.00 0.56 0.00 92 1006.4
20260506222548 5 0 11.3 14.5 0.00 0.56 0.00 92 1006.3
20260506222048 5 337 14.5 14.5 0.00 0.56 0.00 92 1006.4
20260506221548 5 337 12.9 12.9 0.00 0.56 0.00 92 1006.2
20260506221048 5 337 6.4 11.3 0.00 0.56 0.00 92 1006.4
20260506220548 5 337 6.4 11.3 0.00 0.56 0.00 92 1006.1
20260506220048 5 337 8.0 16.1 0.00 0.56 0.00 92 1006.0
20260506215548 5 337 12.9 14.5 0.00 0.56 0.00 92 1006.0
20260506215048 5 337 12.9 16.1 0.00 0.56 0.00 92 1006.0
20260506214548 5 337 8.0 12.9 0.00 0.56 0.00 92 1005.8
20260506214048 5 337 9.7 16.1 0.00 0.56 0.00 92 1005.7
20260506213548 5 0 8.0 14.5 0.00 0.56 0.00 91 1005.8
20260506213048 5 0 14.5 16.1 0.00 0.56 0.00 91 1005.6
20260506212548 5 0 11.3 19.3 0.00 0.56 0.00 91 1005.5
20260506212048 5 315 11.3 16.1 0.00 0.56 0.00 91 1005.5
20260506211548 5 337 16.1 19.3 0.00 0.56 0.00 91 1005.3
20260506211048 5 0 16.1 17.7 0.00 0.56 0.00 91 1005.3
20260506210548 5 337 16.1 20.9 0.00 0.66 0.00 91 1005.4
20260506210048 5 337 24.1 24.1 0.00 0.66 0.00 91 1005.4
20260506205548 5 337 19.3 20.9 0.00 0.66 0.00 91 1005.6
20260506205048 5 0 19.3 25.7 0.00 0.66 0.00 91 1005.4
20260506204548 5 0 17.7 24.1 0.00 0.66 0.00 91 1005.5
20260506204048 5 0 19.3 22.5 0.00 0.66 0.00 91 1005.5
20260506203548 6 337 22.5 22.5 0.00 0.66 0.00 90 1005.4
20260506203048 6 0 14.5 14.5 0.00 0.66 0.00 90 1005.5
20260506202548 6 0 12.9 12.9 0.00 0.66 0.00 90 1005.6
20260506202048 6 0 9.7 12.9 0.00 0.66 0.00 90 1005.6
20260506201548 6 0 9.7 16.1 0.00 0.66 0.00 90 1005.5
20260506201048 6 337 16.1 17.7 0.00 0.66 0.00 90 1005.4
20260506200548 6 0 11.3 16.1 0.00 0.66 0.00 90 1005.3
20260506200048 6 22 14.5 19.3 0.00 0.66 0.00 90 1005.3
20260506195548 6 337 9.7 14.5 0.00 0.66 0.00 89 1005.3
20260506195048 6 0 11.3 17.7 0.00 0.66 0.00 90 1005.2
20260506194548 6 0 16.1 17.7 0.00 0.66 0.00 89 1005.1
20260506194048 6 0 14.5 19.3 0.00 0.66 0.00 89 1005.0
20260506193548 6 0 9.7 19.3 0.00 0.66 0.00 89 1005.0
20260506193048 6 337 14.5 19.3 0.00 0.66 0.00 89 1004.9
20260506192548 6 337 12.9 17.7 0.00 0.66 0.00 89 1004.9
20260506192048 6 337 9.7 16.1 0.00 0.66 0.00 89 1004.8
20260506191548 6 0 8.0 14.5 0.00 0.66 0.00 88 1004.9
20260506191048 6 0 8.0 19.3 0.00 0.66 0.00 88 1004.6
20260506190548 6 0 14.5 20.9 0.00 0.76 0.00 88 1004.5
20260506190048 6 337 12.9 19.3 0.00 0.76 0.00 88 1004.4
20260506185548 6 337 11.3 19.3 0.00 0.76 0.00 88 1004.3
20260506185048 6 337 17.7 19.3 0.00 0.76 0.00 87 1004.2
20260506184548 6 337 14.5 24.1 0.00 0.76 0.00 87 1004.2
20260506184048 6 0 11.3 29.0 0.00 0.76 0.00 87 1004.1
20260506183548 6 337 14.5 22.5 0.00 0.76 0.00 87 1004.1
20260506183048 6 0 22.5 24.1 0.00 0.76 0.00 87 1004.0
20260506182548 6 0 14.5 24.1 0.00 0.76 0.00 86 1003.9
20260506182048 6 337 20.9 22.5 0.00 0.76 0.00 86 1004.0
20260506181548 6 337 14.5 24.1 0.00 0.76 0.00 86 1003.8
20260506181048 7 337 24.1 24.1 0.00 0.76 0.00 86 1004.0
20260506180548 7 0 14.5 25.7 0.00 0.76 0.00 85 1003.9
20260506180048 7 0 17.7 20.9 0.00 0.76 0.00 85 1004.1
20260506175548 7 0 17.7 22.5 0.00 0.76 0.00 85 1004.0
20260506175048 7 0 12.9 20.9 0.00 0.76 0.00 85 1003.9
20260506174548 7 0 17.7 24.1 0.00 0.76 0.00 85 1003.9
20260506174048 7 0 22.5 22.5 0.00 0.76 0.00 85 1003.8
20260506173548 7 0 12.9 20.9 0.00 0.76 0.00 85 1003.9
20260506173048 7 337 20.9 22.5 0.00 0.76 0.00 84 1003.8
20260506172548 7 337 16.1 19.3 0.00 0.76 0.00 84 1003.8
20260506172048 7 337 19.3 20.9 0.00 0.76 0.00 84 1004.0
20260506171548 7 337 19.3 19.3 0.00 0.76 0.00 84 1003.9
20260506171049 7 337 16.1 19.3 0.00 0.76 0.00 84 1003.9
20260506170549 8 337 17.7 19.3 0.00 0.81 0.00 84 1003.9
20260506170049 8 0 12.9 16.1 0.00 0.81 0.00 82 1003.9
20260506165549 8 0 14.5 22.5 0.00 0.81 0.00 82 1003.9
20260506165049 8 337 19.3 20.9 0.00 0.81 0.00 81 1003.8
20260506164549 8 337 17.7 20.9 0.00 0.81 0.00 80 1003.7
20260506164049 8 0 20.9 27.4 0.00 0.81 0.00 80 1003.8
20260506163549 8 0 12.9 25.7 0.00 0.81 0.00 80 1003.7
20260506163049 8 337 16.1 24.1 0.00 0.81 0.00 81 1003.6
20260506162549 8 0 11.3 22.5 0.00 0.81 0.00 80 1003.7
20260506162049 8 0 16.1 20.9 0.00 0.81 0.00 81 1003.6
20260506161549 9 337 16.1 25.7 0.00 0.81 0.00 80 1003.7
20260506161049 8 337 17.7 20.9 0.00 0.81 0.00 81 1003.7
20260506160549 9 0 20.9 24.1 0.00 0.86 0.00 82 1003.5
20260506160049 9 0 17.7 27.4 0.00 0.86 0.00 81 1003.7
20260506155549 9 337 27.4 27.4 0.00 0.86 0.00 82 1003.6
20260506155049 9 0 17.7 25.7 0.00 0.86 0.00 82 1003.5
20260506154549 9 337 20.9 20.9 0.00 0.86 0.00 82 1003.5
20260506154049 9 337 16.1 22.5 0.00 0.86 0.00 83 1003.3
20260506153549 9 0 20.9 27.4 0.00 0.86 0.00 83 1003.3
20260506153049 9 337 11.3 25.7 0.00 0.86 0.00 84 1003.4
20260506152549 9 337 20.9 25.7 0.00 0.86 0.00 85 1003.4
20260506152050 8 337 22.5 22.5 0.00 0.86 0.00 86 1003.3
20260506151549 8 337 17.7 25.7 0.00 0.86 0.00 85 1003.3
20260506151049 8 337 12.9 29.0 0.00 0.86 0.00 85 1003.4
20260506150549 8 315 14.5 19.3 0.00 0.91 0.00 85 1003.3
20260506150049 8 337 12.9 17.7 0.00 0.91 0.00 84 1003.3
20260506145549 8 337 14.5 22.5 0.00 0.91 0.00 85 1003.3
20260506145049 8 0 14.5 25.7 0.00 0.91 0.00 85 1003.4
20260506144549 8 337 25.7 25.7 0.00 0.91 0.00 85 1003.3
20260506144049 9 0 17.7 24.1 0.00 0.91 0.00 84 1003.2
20260506143549 9 0 16.1 22.5 0.00 0.91 0.00 84 1003.3
20260506143049 9 337 17.7 19.3 0.00 0.91 0.00 85 1003.3
20260506142549 9 0 17.7 22.5 0.00 0.91 0.00 86 1003.3
20260506142049 9 337 14.5 27.4 0.00 0.91 0.00 87 1003.4
20260506141549 8 22 16.1 20.9 0.00 0.91 0.00 89 1003.3
20260506141049 8 0 12.9 17.7 0.00 0.91 0.00 89 1003.3
20260506140549 8 0 9.7 22.5 0.00 1.02 0.00 89 1003.3
20260506140049 8 337 20.9 25.7 0.00 1.02 0.00 90 1003.2
20260506135549 8 337 17.7 24.1 0.00 1.02 0.00 90 1003.3
20260506135049 8 337 20.9 20.9 0.00 1.02 0.00 90 1003.3
20260506134549 8 337 11.3 17.7 0.00 1.02 0.00 90 1003.2
20260506134049 8 337 12.9 24.1 0.00 1.02 0.00 90 1003.2
20260506133549 8 337 16.1 17.7 0.00 1.02 0.00 90 1003.2
20260506133049 8 337 12.9 19.3 0.00 1.02 0.00 90 1003.2
20260506132549 8 0 12.9 20.9 0.00 1.02 0.00 89 1003.0
20260506132049 8 0 16.1 22.5 0.00 1.02 0.00 89 1003.1
20260506131549 8 337 12.9 19.3 0.00 1.02 0.00 89 1003.1
20260506131049 8 337 9.7 22.5 0.00 1.02 0.00 89 1003.2
20260506130549 8 315 11.3 22.5 0.00 1.40 0.00 90 1003.2
20260506130049 8 337 8.0 19.3 0.00 1.40 0.00 90 1003.1
20260506125549 8 337 12.9 19.3 0.00 1.40 0.00 90 1002.8
20260506125049 8 337 12.9 16.1 0.00 1.40 0.00 90 1002.9
20260506124549 8 337 12.9 16.1 0.00 1.40 0.00 90 1002.9
20260506124049 8 337 11.3 17.7 0.00 1.40 0.00 89 1002.9
20260506123549 8 337 11.3 16.1 0.00 1.40 0.00 89 1002.9
20260506123049 8 0 8.0 17.7 0.00 1.40 0.00 89 1002.6
20260506122549 9 0 9.7 19.3 0.00 1.40 0.00 90 1002.7
20260506122049 8 0 8.0 16.1 0.00 1.40 0.00 90 1002.6
20260506121549 8 337 12.9 20.9 0.00 1.40 0.00 90 1002.6
20260506121049 8 0 8.0 19.3 0.00 1.40 0.00 89 1002.5
20260506120549 8 0 9.7 12.9 0.00 1.50 0.00 89 1002.6
20260506120049 8 0 12.9 16.1 0.00 1.50 0.00 89 1002.5
20260506115549 8 0 11.3 16.1 0.00 1.50 0.00 89 1002.5
20260506115049 8 0 12.9 14.5 0.00 1.50 0.00 88 1002.5
20260506114549 8 0 11.3 19.3 0.00 1.50 0.00 89 1002.4
20260506114049 8 337 14.5 19.3 0.00 1.50 0.00 89 1002.4
20260506113549 8 337 9.7 17.7 0.00 1.50 0.00 89 1002.4
20260506113049 8 337 14.5 16.1 0.00 1.50 0.00 88 1002.3
20260506112549 8 337 11.3 17.7 0.00 1.50 0.00 88 1002.4
20260506112049 8 337 16.1 19.3 0.00 1.50 0.00 87 1002.5
20260506111549 8 337 16.1 19.3 0.00 1.50 0.00 87 1002.5
20260506111049 9 337 14.5 17.7 0.00 1.50 0.00 86 1002.4
20260506110549 9 0 9.7 17.7 0.00 1.50 0.00 86 1002.3
20260506110049 9 0 14.5 17.7 0.00 1.50 0.00 86 1002.4
20260506105549 9 337 12.9 22.5 0.00 1.50 0.00 86 1002.2
20260506105049 9 337 19.3 20.9 0.00 1.50 0.00 87 1002.2
20260506104549 9 337 16.1 17.7 0.00 1.50 0.00 87 1002.0
20260506104049 9 337 19.3 20.9 0.00 1.50 0.00 87 1002.2
20260506103549 9 337 19.3 25.7 0.00 1.50 0.00 87 1002.2
20260506103049 9 337 16.1 20.9 0.00 1.50 0.00 88 1002.0
20260506102549 9 0 12.9 17.7 0.00 1.50 0.00 87 1002.0
20260506102051 9 0 11.3 19.3 0.00 1.50 0.00 87 1002.1
20260506101549 9 337 17.7 20.9 0.00 1.50 0.00 87 1002.0
20260506101049 9 337 14.5 19.3 0.00 1.50 0.00 87 1002.1
20260506100549 9 0 14.5 19.3 0.00 1.50 0.00 87 1002.2
20260506100050 9 337 14.5 17.7 0.00 1.50 0.00 87 1002.1
20260506095550 9 337 14.5 22.5 0.00 1.50 0.00 87 1002.1
20260506095050 9 337 14.5 22.5 0.00 1.50 0.00 87 1002.0
20260506094550 10 337 19.3 25.7 0.00 1.50 0.00 87 1001.8
20260506094050 10 0 14.5 19.3 0.00 1.50 0.00 87 1001.7
20260506093550 10 337 17.7 22.5 0.00 1.50 0.00 88 1001.8
20260506093051 10 0 17.7 22.5 0.00 1.50 0.00 89 1001.7
20260506092550 10 337 19.3 22.5 0.00 1.50 0.00 90 1001.7
20260506092050 10 337 12.9 20.9 0.00 1.50 0.00 91 1001.6
20260506091550 10 0 16.1 24.1 0.00 1.50 0.00 93 1001.6
20260506091050 10 0 12.9 16.1 0.00 1.50 0.00 93 1001.7
20260506090550 10 0 9.7 17.7 0.00 1.50 0.00 93 1001.7
20260506090050 10 0 12.9 19.3 0.00 1.50 0.00 93 1001.5
20260506085550 9 337 11.3 20.9 0.00 1.50 0.00 93 1001.6
20260506085050 8 0 16.1 20.9 0.00 1.50 0.00 96 1001.6
20260506084550 8 337 12.9 20.9 0.00 1.50 0.00 96 1001.4
20260506084050 8 337 12.9 20.9 0.00 1.50 0.00 96 1001.5
20260506083550 8 337 12.9 16.1 0.00 1.50 0.00 96 1001.6
20260506083050 8 0 16.1 19.3 0.00 1.50 0.00 96 1001.6
20260506082550 8 337 12.9 17.7 0.00 1.50 0.00 96 1001.4
20260506082050 8 0 16.1 16.1 0.00 1.50 0.00 96 1001.4
20260506081550 8 337 11.3 17.7 0.00 1.50 0.00 96 1001.4
20260506081050 8 337 12.9 12.9 0.00 1.50 0.00 96 1001.5
20260506080550 8 0 8.0 14.5 0.00 1.50 0.00 96 1001.4
20260506073050 9 0 17.7 17.7 0.05 1.50 0.00 96 1001.2
20260506072550 9 337 16.1 19.3 0.05 1.50 0.00 96 1001.3
20260506072050 8 337 12.9 19.3 0.05 1.50 0.00 96 1001.1
20260506071550 8 0 16.1 22.5 0.05 1.50 0.00 96 1001.1
20260506071050 8 0 12.9 20.9 0.05 1.50 0.00 96 1001.2
20260506070550 8 337 16.1 22.5 0.05 1.50 0.00 96 1001.2
20260506062050 8 0 14.5 14.5 0.05 1.45 0.00 96 1001.1
20260506061550 8 337 11.3 14.5 0.05 1.45 0.00 96 1001.1
20260506061050 7 0 8.0 14.5 0.05 1.45 0.00 96 1000.9
20260506060550 7 0 11.3 17.7 0.05 1.45 0.00 96 1001.0
20260506051050 8 337 9.7 14.5 0.00 1.40 0.00 96 1000.8
20260506050550 8 337 9.7 16.1 0.00 1.40 0.00 96 1000.7
20260506045050 8 337 8.0 11.3 0.00 1.40 0.00 96 1000.8
20260506044550 8 337 6.4 9.7 0.00 1.40 0.00 96 1000.8
20260506044050 8 0 4.8 8.0 0.00 1.40 0.00 96 1000.8
20260506043550 8 337 3.2 6.4 0.00 1.40 0.00 96 1000.9
20260506043050 8 337 4.8 9.7 0.00 1.40 0.00 96 1000.9
20260506042550 8 337 3.2 11.3 0.00 1.40 0.00 96 1000.8
20260506042050 8 337 11.3 11.3 0.00 1.40 0.00 96 1000.8
20260506041550 8 337 6.4 9.7 0.00 1.40 0.00 96 1000.7
20260506041050 8 337 3.2 3.2 0.05 1.40 0.00 96 1000.7
20260506040550 8 0 0.0 3.2 0.05 1.40 0.00 96 1000.7
20260506040050 8 0 0.0 4.8 0.05 1.40 0.00 96 1000.7
20260506035550 8 270 0.0 0.0 0.05 1.40 0.00 96 1000.8
20260506035050 9 270 0.0 0.0 0.05 1.40 0.00 96 1000.8
20260506034550 9 270 0.0 0.0 0.05 1.40 0.00 96 1000.8
20260506034050 9 270 0.0 0.0 0.05 1.40 0.00 96 1000.9
20260506033550 9 292 0.0 3.2 0.05 1.40 0.00 96 1000.9
20260506033050 10 202 3.2 3.2 0.05 1.40 0.00 96 1000.8
20260506032550 10 45 0.0 3.2 0.05 1.40 0.00 96 1000.8
20260506032050 10 157 1.6 3.2 0.05 1.40 0.00 96 1000.9
20260506031550 10 0 0.0 6.4 0.05 1.40 0.00 96 1000.8
20260506031050 10 315 0.0 3.2 0.00 1.32 0.00 96 1000.7
20260506030550 10 202 0.0 0.0 0.00 1.32 0.00 96 1000.8
20260506030051 10 247 0.0 0.0 0.00 1.32 0.00 96 1000.8
20260506025550 10 270 0.0 3.2 0.00 1.32 0.00 96 1000.8
20260506025051 10 315 0.0 6.4 0.00 1.32 0.00 96 1000.8
20260506024551 10 315 0.0 8.0 0.00 1.32 0.00 96 1000.8
20260506024051 10 180 0.0 3.2 0.00 1.32 0.00 96 1000.8
20260506023551 10 202 0.0 9.7 0.00 1.32 0.00 96 1000.8
20260506023051 10 247 0.0 9.7 0.00 1.32 0.00 96 1001.0
20260506022551 10 180 0.0 3.2 0.00 1.32 0.00 96 1001.1
20260506022051 10 202 0.0 6.4 0.00 1.32 0.00 96 1001.0
20260506021551 10 180 1.6 8.0 0.00 1.32 0.00 96 1001.0
20260506021051 10 157 3.2 8.0 0.05 1.32 0.00 96 1001.0
20260506020551 10 157 0.0 6.4 0.05 1.32 0.00 96 1001.1
20260506020235 10 180 0.0 3.2 0.10 1.32 0.00 96 1001.2
20260506020051 10 180 0.0 3.2 0.10 1.32 0.00 96 1001.2
20260506015551 10 180 0.0 3.2 0.10 1.32 0.00 96 1001.2
20260506015051 10 157 0.0 9.7 0.10 1.32 0.00 96 1001.2
20260506014551 10 337 0.0 4.8 0.10 1.32 0.00 96 1001.2
20260506014051 10 180 0.0 8.0 0.10 1.32 0.00 96 1001.2
20260506013551 10 180 0.0 6.4 0.10 1.32 0.00 96 1001.2
20260506013051 10 225 0.0 8.0 0.10 1.32 0.00 96 1001.3
20260506012551 10 315 0.0 4.8 0.10 1.32 0.00 96 1001.4
20260506012051 10 180 0.0 4.8 0.10 1.32 0.00 96 1001.4
20260506011551 10 180 0.0 6.4 0.10 1.27 0.00 96 1001.4
20260506011051 10 247 0.0 8.0 0.15 1.27 0.00 96 1001.5
20260506010551 10 202 1.6 1.6 0.30 1.27 0.00 96 1001.5
20260506010051 10 315 0.0 0.0 0.25 1.22 0.00 96 1001.6
20260506005551 10 315 0.0 0.0 0.30 1.22 0.00 96 1001.4
20260506005051 10 315 0.0 0.0 0.30 1.22 0.00 96 1001.6
20260506004551 10 315 0.0 0.0 0.30 1.22 0.00 96 1001.7
20260506004051 10 315 0.0 0.0 0.30 1.22 0.00 96 1001.7
20260506003551 10 315 0.0 0.0 0.30 1.22 0.00 96 1001.8
20260506003051 10 315 0.0 0.0 0.30 1.22 0.00 96 1001.9
20260506002551 10 315 0.0 0.0 0.30 1.22 0.00 96 1001.9
20260506002051 10 315 0.0 0.0 0.30 1.22 0.00 96 1002.0
20260506001551 10 315 0.0 3.2 0.20 1.12 0.00 96 1002.0
20260506001051 10 292 0.0 9.7 0.15 1.07 0.00 96 1002.1
20260506000551 10 157 8.0 8.0 0.05 0.97 0.00 96 1001.9
20260506000051 10 180 0.0 9.7 0.00 0.91 0.00 96 1002.0
20260505235551 10 202 4.8 8.0 0.00 0.91 0.00 96 1002.1
20260505235051 10 180 6.4 11.3 0.00 0.91 0.00 96 1002.1
20260505234551 10 180 9.7 9.7 0.00 0.91 0.00 96 1002.1
20260505234051 10 135 6.4 8.0 0.00 0.91 0.00 96 1002.3
20260505233551 10 180 0.0 4.8 0.00 0.91 0.00 96 1002.4
20260505233051 10 135 1.6 8.0 0.00 0.91 0.00 96 1002.5
20260505232551 10 135 4.8 9.7 0.00 0.91 0.00 96 1002.5
20260505232051 10 135 3.2 8.0 0.00 0.91 0.00 96 1002.4
20260505231551 10 180 1.6 6.4 0.00 0.91 0.00 96 1002.4
20260505231051 10 180 0.0 8.0 0.00 0.91 0.00 96 1002.5